EDT,Max TemperatureF,Mean TemperatureF,Min TemperatureF,Max Dew PointF,MeanDew PointF,Min DewpointF,Max Humidity, Mean Humidity, Min Humidity, Max Sea Level PressureIn, Mean Sea Level PressureIn, Min Sea Level PressureIn, Max VisibilityMiles, Mean VisibilityMiles, Min VisibilityMiles, Max Wind SpeedMPH, Mean Wind SpeedMPH, Max Gust SpeedMPH,PrecipitationIn, CloudCover, Events, WindDirDegrees
2012-9-1,87,80,71,72,69,68,100,68,52,30.18,30.12,30.08,10,10,7,5,3,,0.01,1,Rain,20
2012-9-2,86,77,68,72,71,68,100,82,58,30.09,30.02,29.95,10,8,3,6,1,,0.01,2,Rain,229
2012-9-3,86,78,69,72,70,68,100,93,58,30.03,30.01,29.98,10,5,2,4,0,,0.00,3,,200
2012-9-4,82,76,69,73,71,70,100,89,66,30.02,29.98,29.93,10,8,2,8,3,,0.14,7,Rain,175
2012-9-5,86,78,69,72,70,68,100,84,58,29.99,29.94,29.90,10,9,4,9,2,16,0.00,6,Rain,203
2012-9-6,87,78,68,72,69,63,100,79,45,29.98,29.94,29.90,10,9,3,7,1,,0.00,3,Rain,257
2012-9-7,87,78,69,70,66,59,100,71,38,30.02,29.95,29.90,10,9,2,5,1,,0.00,3,,51
2012-9-8,89,76,64,72,66,61,100,84,49,29.88,29.81,29.73,10,7,2,14,2,18,0.10,4,Rain,244
2012-9-9,78,68,57,64,52,45,94,56,32,30.00,29.94,29.88,10,10,10,10,3,,0.01,3,,12
2012-9-10,80,70,59,61,52,46,88,50,30,30.15,30.12,30.09,10,10,10,4,1,,0.00,3,,18
2012-9-11,75,70,64,61,56,54,88,60,47,30.33,30.27,30.18,10,10,10,4,1,,0.00,4,,100
2012-9-12,80,72,62,59,56,54,88,63,39,30.31,30.30,30.29,10,10,10,5,2,,0.00,5,,110
2012-9-13,77,64,50,54,52,50,100,54,41,30.36,30.30,30.27,10,9,7,6,2,,0.00,1,,75
2012-9-14,78,59,59,55,54,54,88,65,42,30.28,30.24,30.20,10,10,10,0,0,,0.00,0,,-1
2012-9-15,84,75,64,63,57,54,94,50,35,30.22,30.14,30.11,10,10,10,8,3,,0.00,2,,96
2012-9-16,68,66,64,66,65,63,100,93,83,30.17,30.13,30.09,10,5,2,8,2,,0.04,8,Rain,46
2012-9-17,75,68,62,70,67,63,100,94,78,30.11,30.01,29.92,10,6,1,5,1,,0.65,8,Rain,81
2012-9-18,73,68,64,70,67,63,100,93,83,29.90,29.78,29.74,10,8,0,10,5,20,0.18,6,Fog-Rain,223
2012-9-19,73,64,55,63,56,50,100,77,46,30.15,30.04,29.88,10,10,4,9,2,,0.00,3,,37
2012-9-20,77,64,51,61,55,50,100,80,44,30.20,30.13,30.07,10,9,3,6,0,,0.00,2,,128
2012-9-21,82,66,51,63,57,50,100,78,37,30.12,30.06,30.00,10,9,4,8,1,,0.00,1,,224
2012-9-22,86,72,57,66,60,52,100,73,40,30.03,29.98,29.92,10,8,1,12,3,20,0.01,2,Rain,227
2012-9-23,78,64,50,55,46,37,100,60,23,30.16,30.10,30.03,10,10,10,7,1,,0.00,1,,338
2012-9-24,71,58,44,50,40,34,100,54,28,30.26,30.20,30.16,10,10,10,13,4,20,0.00,0,,37
2012-9-25,77,60,42,59,50,43,100,78,41,30.26,30.22,30.18,10,10,5,12,1,,0.00,0,,212
2012-9-26,82,66,50,61,55,50,100,78,35,30.25,30.20,30.16,10,9,5,10,1,,0.00,0,,200
2012-9-27,82,65,48,63,55,48,100,77,32,30.23,30.17,30.11,10,9,2,6,1,,0.00,0,,229
2012-9-28,86,70,55,63,59,52,100,81,31,30.14,30.08,30.00,10,8,2,12,1,20,0.38,2,Rain,238
2012-9-29,69,64,60,66,62,61,100,96,78,30.04,29.97,29.90,10,5,0,8,0,,0.11,6,Fog-Rain,42
2012-9-30,73,64,55,61,55,43,100,80,33,29.95,29.92,29.87,10,8,1,6,2,,0.00,3,,53